Miscellaneous Local Product
Issued by NWS Hastings, NE

Home | Current Version | Previous Version | Text Only | Print | Product List | Glossary On
Versions: 1 2 3 4 5 6 7 8 9 10 11 12 13 14 15 16 17 18 19 20 21 22 23 24 25 26 27 28 29 30 31 32 33 34 35 36 37 38 39 40 41 42 43 44 45 46 47 48 49 50
578
AXUS43 KGID 251502
MISGRI

GID CWA HOURLY WEATHER ROUNDUP
NATIONAL WEATHER SERVICE HASTINGS NE
1000 AM CDT TUE APR 25 2017

NOTE: "FAIR" INDICATES FEW OR NO CLOUDS BELOW 12,000 FEET WITH NO
SIGNIFICANT WEATHER AND/OR OBSTRUCTIONS TO VISIBILITY.

...SOUTH CENTRAL NEBRASKA...

CITY           SKY/WX    TMP DP  RH WIND       PRES   REMARKS
GRAND ISLAND   LGT RAIN  43  42  97 NW18      29.57R
HASTINGS       CLOUDY    46  42  86 N21       29.55F
KEARNEY        CLOUDY    43  37  81 N21G29    29.57S
ORD            RAIN      39  36  89 N16       29.60R FOG     WCI  30
YORK           CLOUDY    46  41  81 N15       29.52R
AURORA         CLOUDY    43  41  93 N15       29.57R
LEXINGTON      CLOUDY    42  39  90 N15G25    29.56F
HOLDREGE       CLOUDY    45  42  90 N22       29.54F
HEBRON         CLOUDY    53  43  69 NE14      29.47S

...NEBRASKA PANHANDLE...

CITY           SKY/WX    TMP DP  RH WIND       PRES   REMARKS
CHADRON        LGT SNOW  34  33  96 NE16      29.64R FOG     WCI  24
ALLIANCE       CLOUDY    43  40  89 E12       29.56S
SCOTTSBLUFF    PTSUNNY   50  38  63 NW10      29.55S
SIDNEY         MOSUNNY   48  43  82 CALM      29.56S

...WESTERN AND NORTH CENTRAL NEBRASKA...

CITY           SKY/WX    TMP DP  RH WIND       PRES   REMARKS
VALENTINE      LGT RAIN  36  32  85 N10       29.66F FOG     WCI  28
AINSWORTH      LGT SNOW  33  33 100 NE9       29.66F WCI  26
ONEILL         LGT RAIN  37  35  93 N18G24    29.65R WCI  26
BROKEN BOW     LGT RAIN  40  40 100 N18G24    29.59F WCI  31
IMPERIAL       CLOUDY    46  44  93 NE12      29.54S
NORTH PLATTE   LGT RAIN  41  38  89 NE17      29.56F
MCCOOK         CLOUDY    46  45  96 N15       29.53F

...EASTERN NEBRASKA...

CITY           SKY/WX    TMP DP  RH WIND       PRES   REMARKS
NORFOLK        LGT RAIN  40  37  89 N16       29.53S WCI  31
SO SIOUX CITY  LGT RAIN  43  42  97 N20       29.52F
TEKAMAH        LGT RAIN  46  40  79 N22G31    29.51F
ALBION         RAIN      41  37  87 N18G24    29.55R
OMAHA EPPLEY   CLOUDY    50  41  71 N13       29.52R
OFFUTT AFB     CLOUDY    52  43  72 N12       29.49F
MILLARD        CLOUDY    52  44  73 N8        29.51F
LINCOLN        CLOUDY    51  41  68 N18       29.51F
NEBRASKA CITY  CLOUDY    57  44  62 N12       29.47F
BEATRICE       CLOUDY    56  48  74 NE12      29.46S
FALLS CITY     CLOUDY    65  50  58 S10       29.43F

...NORTHERN KANSAS...

CITY           SKY/WX    TMP DP  RH WIND       PRES   REMARKS
GOODLAND       CLOUDY    50  43  77 N17       29.54S
HILL CITY      CLOUDY    51  46  83 N21G28    29.52F
NORTON         CLOUDY    50  39  66 N21G26    29.52F
PHILLIPSBURG   CLOUDY    50  45  81 N14G20    29.53F
SMITH CENTER   CLOUDY    48  41  76 N20       29.51R
HAYS           CLOUDY    52  43  71 N22G28    29.47R
RUSSELL        CLOUDY    53  45  74 N13       29.45R
CONCORDIA      CLOUDY    55  49  80 N7        29.44R
SALINA         SUNNY     65  52  62 CALM      29.40S
TOPEKA         PTSUNNY   67  52  58 S10       29.42F



USA.gov is the U.S. government's official web portal to all federal, state and local government web resources and services.